(299371) = 2005 UD217

Discovered at Socorro on 2005-10-27 by LINEAR.

Orbit

Orbit type: Main Belt

Note: WebGL enabled browser required.

epoch2023-09-13.0
epoch JD2460200.5
perihelion date2022-09-09.19825
perihelion JD2459831.69825
argument of perihelion (°)321.76131
ascending node (°)31.47885
inclination (°)15.10680
eccentricity0.0707340
perihelion distance (AU)2.9782291
Tisserand w.r.t. Jupiter3.1
ΔV w.r.t. Earth (km/sec)11.7
semimajor axis (AU)3.2049264
mean anomaly (°)63.35337
mean daily motion (°/day)0.17178160
aphelion distance (AU)3.432
period (years)5.74
P-vector [x]0.98187902
P-vector [y]-0.02709415
P-vector [z]-0.18756198
Q-vector [x]0.13188178
Q-vector [y]0.80844018
Q-vector [z]0.57361282
absolute magnitude15.25
phase slope0.15
uncertainty0
referenceMPO 779148
observations used410
oppositions15
arc length (days)7922
first opposition used2002
last opposition used2023
residual rms (arc-secs)0.71
perturbers coarse indicatorM-v
perturbers precise indicator003Ek
first observation date used2002-02-12.0
last observation date used2023-10-22.0
computer nameMPCLINUX
JD of orbit computation2456819.659779
perihelion JD uncertainty (days)4.2107E-04
argument of perihelion uncertainty (°)6.6392E-05
ascending node uncertainty (°)2.4299E-05
inclination uncertainty (°)9.9928E-06
eccentricity uncertainty 1.2977E-07
perihelion distance uncertainty (AU)3.8414E-07
Minimum Orbit Intersection Distances (in AU)
for orbit epoch: 2460200.5, reference: E2023-UL0
Mercury2.59557
Venus2.25583
Earth1.9901
Mars1.58328
Jupiter1.94166
Saturn5.95814
Uranus15.0688
Neptune26.8111

Observations

419 total observations over interval: 2002 02 12.54106 – 2023 10 22.383041
These data are available for download (format description).

Date (UT) J2000 RA J2000 Dec Magn Location Ref
2002 02 12.54106 10 38 59.92 +29 08 11.2 20.0   644 – Palomar Mountain/NEAT MPS 162837
2002 02 12.55213 10 38 59.36 +29 08 13.3 19.9   644 – Palomar Mountain/NEAT MPS 162837
2002 02 12.56203 10 38 58.85 +29 08 16.2 20.4   644 – Palomar Mountain/NEAT MPS 162837
2003 04 29.26819 14 01 05.95 -13 28 44.9 19.4 C 704 – Lincoln Laboratory ETS, New Mexico MPS 290237
2003 04 29.27996 14 01 05.39 -13 28 43.2 19.3 C 704 – Lincoln Laboratory ETS, New Mexico MPS 290237
2003 04 29.30366 14 01 04.26 -13 28 41.7 18.0 C 704 – Lincoln Laboratory ETS, New Mexico MPS 290237
2003 04 29.31575 14 01 03.52 -13 28 41.2 18.9 C 704 – Lincoln Laboratory ETS, New Mexico MPS 290237
2003 05 25.17246 13 42 13.00 -13 12 10.6 21.3 V 691 – Steward Observatory, Kitt Peak-Spacewatch MPS 162837
2003 05 25.20231 13 42 11.95 -13 12 10.8 21.3 V 691 – Steward Observatory, Kitt Peak-Spacewatch MPS 162837
2003 05 25.22922 13 42 11.06 -13 12 10.2 20.8 V 691 – Steward Observatory, Kitt Peak-Spacewatch MPS 162837
2003 06 06.18203 13 37 01.71 -13 16 18.3 21.0 V 691 – Steward Observatory, Kitt Peak-Spacewatch MPS 162837
2003 06 06.20800 13 37 01.25 -13 16 20.0 21.4 V 691 – Steward Observatory, Kitt Peak-Spacewatch MPS 162837
2003 06 06.23423 13 37 00.68 -13 16 20.8 21.1 V 691 – Steward Observatory, Kitt Peak-Spacewatch MPS 162837
2004 07 19.55575 19 10 32.90 -43 56 20.8 19.8 R E12 – Siding Spring Survey MPS 162837
2004 07 19.56712 19 10 32.24 -43 56 21.5 19.1 R E12 – Siding Spring Survey MPS 162837
2004 07 19.57850 19 10 31.51 -43 56 21.5 19.5 R E12 – Siding Spring Survey MPS 162837
2004 07 19.58980 19 10 30.84 -43 56 21.9 19.3 R E12 – Siding Spring Survey MPS 162837
2005 09 09.37633 01 22 15.92 -00 43 13.6 20.2   705 – Apache Point MPS 211820
2005 09 09.37715 01 22 15.89 -00 43 13.7 19.7 V 705 – Apache Point MPS 211820
2005 09 14.33138 01 19 18.13 -00 48 13.7 20.8   705 – Apache Point MPS 211547
2005 09 14.33220 01 19 18.10 -00 48 13.8 20.0 V 705 – Apache Point MPS 211547
2005 09 24.31895 01 12 03.81 -00 59 50.9 20.5   705 – Apache Point MPS 211547
2005 09 24.31978 01 12 03.76 -00 59 51.0 19.6 V 705 – Apache Point MPS 211547
2005 09 26.36318 01 10 24.72 -01 02 14.9 20.4   705 – Apache Point MPS 211547
2005 09 26.36400 01 10 24.68 -01 02 15.0 19.5 V 705 – Apache Point MPS 211547
2005 09 27.32242 01 09 37.39 -01 03 21.1 20.5   705 – Apache Point MPS 211547
2005 09 27.32324 01 09 37.35 -01 03 21.1 19.6 V 705 – Apache Point MPS 211547
2005 09 30.25864 01 07 09.17 -01 06 35.8 19.5 R 699 – Lowell Observatory-LONEOS MPS 156082
2005 09 30.28348 01 07 07.95 -01 06 37.8   699 – Lowell Observatory-LONEOS MPS 156082
2005 09 30.30828 01 07 06.61 -01 06 39.5   699 – Lowell Observatory-LONEOS MPS 156082
2005 09 30.33016 01 07 05.54 -01 06 40.9 20.0 R 644 – Palomar Mountain/NEAT MPS 156082
2005 09 30.33310 01 07 05.31 -01 06 40.6   699 – Lowell Observatory-LONEOS MPS 156082
2005 09 30.35226 01 07 04.38 -01 06 42.7 20.6 R 644 – Palomar Mountain/NEAT MPS 156082
2005 09 30.37315 01 07 03.27 -01 06 43.9 19.8 R 644 – Palomar Mountain/NEAT MPS 156082
2005 10 03.35410 01 04 28.88 -01 09 45.2 18.9 V 703 – Catalina Sky Survey MPS 156082
2005 10 03.36068 01 04 28.45 -01 09 44.7 19.1 V 703 – Catalina Sky Survey MPS 156082
2005 10 03.36727 01 04 28.27 -01 09 45.6 18.9 V 703 – Catalina Sky Survey MPS 156082
2005 10 03.37383 01 04 27.76 -01 09 45.0 18.9 V 703 – Catalina Sky Survey MPS 156082
2005 10 26.26183 00 45 07.85 -01 12 56.2 20.4   705 – Apache Point MPS 211820
2005 10 26.26266 00 45 07.81 -01 12 56.1 19.7 V 705 – Apache Point MPS 211820
2005 10 27.17910 00 44 27.29 -01 12 02.3 18.9 R 699 – Lowell Observatory-LONEOS MPS 156082
2005 10 27.19937 00 44 26.54 -01 12 00.0 19.4   704 – Lincoln Laboratory ETS, New Mexico MPS 149840
2005 10 27.20652 00 44 26.08 -01 12 01.9   699 – Lowell Observatory-LONEOS MPS 156082
2005 10 27.21114 00 44 25.87 -01 12 00.4 19.5   704 – Lincoln Laboratory ETS, New Mexico MPS 149840
2005 10 27.22288 00 44 25.29 -01 11 58.7 20.1   704 – Lincoln Laboratory ETS, New Mexico MPS 149840
2005 10 27.23396 00 44 24.80 -01 11 59.6   699 – Lowell Observatory-LONEOS MPS 156082
2005 10 27.23473 00 44 24.83 -01 12 01.3 19.6   704 – Lincoln Laboratory ETS, New Mexico MPS 149840
2005 10 27.24642 00 44 24.22 -01 11 57.6 19.5   704 – Lincoln Laboratory ETS, New Mexico MPS 149840
2005 10 27.26138 00 44 23.52 -01 11 57.4   699 – Lowell Observatory-LONEOS MPS 156082
2005 10 28.20570 00 43 42.67 -01 10 57.4 19.8   704 – Lincoln Laboratory ETS, New Mexico MPS 149840
2005 10 28.21741 00 43 42.10 -01 10 57.5 19.8   704 – Lincoln Laboratory ETS, New Mexico MPS 149840
2005 10 28.22913 00 43 41.55 -01 10 56.8 20.0   704 – Lincoln Laboratory ETS, New Mexico MPS 149840
2005 10 28.34554 00 43 36.43 -01 10 48.6 20.3   705 – Apache Point MPS 211820
2005 10 28.34638 00 43 36.40 -01 10 48.5 19.6 V 705 – Apache Point MPS 211820
2005 10 31.24362 00 41 36.47 -01 07 02.9 20.9   705 – Apache Point MPS 211820
2005 10 31.24446 00 41 36.44 -01 07 02.8 20.0 V 705 – Apache Point MPS 211820
2005 11 02.33216 00 40 15.21 -01 03 44.5 20.8   705 – Apache Point MPS 211820
2005 11 02.33300 00 40 15.18 -01 03 44.4 20.1 V 705 – Apache Point MPS 211820
2005 11 03.26485 00 39 40.62 -01 02 06.1 21.3   705 – Apache Point MPS 211820
2005 11 03.26568 00 39 40.58 -01 02 06.0 20.4 V 705 – Apache Point MPS 211820
2005 11 06.25031 00 37 56.41 -00 56 09.6 21.4   705 – Apache Point MPS 211820
2005 11 06.25115 00 37 56.38 -00 56 09.5 20.5 V 705 – Apache Point MPS 211820
2005 11 11.25128 00 35 26.34 -00 43 50.0 20.5   705 – Apache Point MPS 211547
2005 11 11.25212 00 35 26.32 -00 43 49.9 19.8 V 705 – Apache Point MPS 211547
2005 11 26.24531 00 31 14.64 +00 10 23.0 20.8   705 – Apache Point MPS 211820
2005 11 26.24615 00 31 14.62 +00 10 23.1 20.1 V 705 – Apache Point MPS 211820
2005 11 30.14867 00 30 59.29 +00 28 32.3 19.6 V G96 – Mt. Lemmon Survey MPS 156082
2005 11 30.15488 00 30 59.32 +00 28 33.9 20.5 V G96 – Mt. Lemmon Survey MPS 156082
2005 11 30.16105 00 30 59.32 +00 28 35.5 20.5 V G96 – Mt. Lemmon Survey MPS 156082
2005 11 30.16719 00 30 59.29 +00 28 37.4 20.5 V G96 – Mt. Lemmon Survey MPS 156082
2005 12 01.23179 00 30 58.58 +00 33 50.6 21.9   705 – Apache Point MPS 211820
2005 12 01.23263 00 30 58.58 +00 33 51.0 20.9 V 705 – Apache Point MPS 211820
2006 01 05.08155 00 43 19.02 +04 19 08.8 21.0 V G96 – Mt. Lemmon Survey MPS 157812
2006 01 05.08890 00 43 19.23 +04 19 11.9 20.1 V G96 – Mt. Lemmon Survey MPS 157812
2006 01 05.09627 00 43 19.52 +04 19 15.8 20.3 V G96 – Mt. Lemmon Survey MPS 157812
2006 01 05.10366 00 43 19.84 +04 19 19.0 20.4 V G96 – Mt. Lemmon Survey MPS 157812
2008 02 29.25792 11 40 07.50 +19 01 27.5 21.0 V 703 – Catalina Sky Survey MPS 240762
2008 02 29.26501 11 40 07.17 +19 01 30.7 19.8 V 703 – Catalina Sky Survey MPS 240762
2008 02 29.27208 11 40 06.85 +19 01 30.9 20.1 V 703 – Catalina Sky Survey MPS 240762
2008 02 29.27913 11 40 06.63 +19 01 33.2 20.6 V 703 – Catalina Sky Survey MPS 240762
2010 04 29.501936 21 09 30.252 -32 40 58.12   C51 – WISE MPS 903980
2010 04 29.634242 21 09 38.155 -32 41 07.08   C51 – WISE MPS 903980
2010 04 29.766546 21 09 45.989 -32 41 15.36   C51 – WISE MPS 903980
2010 04 29.766674 21 09 46.030 -32 41 15.29   C51 – WISE MPS 903980
2010 04 29.832762 21 09 49.939 -32 41 19.68   C51 – WISE MPS 903980
2010 04 29.965066 21 09 57.838 -32 41 28.97   C51 – WISE MPS 903980
2010 04 30.031282 21 10 01.745 -32 41 32.60   C51 – WISE MPS 903980
2010 04 30.097370 21 10 05.654 -32 41 37.72   C51 – WISE MPS 903980
2010 04 30.163587 21 10 09.581 -32 41 41.96   C51 – WISE MPS 903980
2010 04 30.494284 21 10 29.071 -32 42 05.22   C51 – WISE MPS 903980
2010 04 30.626588 21 10 36.874 -32 42 14.22   C51 – WISE MPS 903980
2010 08 08.63176 21 04 14.48 -39 46 39.3 19.1 V E12 – Siding Spring Survey MPS 343726
2010 08 08.64266 21 04 13.90 -39 46 39.8 19.5 V E12 – Siding Spring Survey MPS 343726
2011 09 29.37210 02 37 25.96 +14 52 13.2 19.8 V 691 – Steward Observatory, Kitt Peak-Spacewatch MPS 392649
2011 09 29.38988 02 37 25.34 +14 52 15.0 19.7 V 691 – Steward Observatory, Kitt Peak-Spacewatch MPS 392649
2011 09 29.40766 02 37 24.72 +14 52 16.9 19.7 V 691 – Steward Observatory, Kitt Peak-Spacewatch MPS 392649
